This is the latest recevied weather packets stored in our database for station/object SR9WXM. If no packets are shown the sender has not sent any weather packets the latest 1 day(s).
| Time | Temp. | Humidity | Pressure | Rain* | Wind** | Luminosity | Snow |
|---|---|---|---|---|---|---|---|
| 1778028047 | 11.67° C | 100% | 0 hPa | - | 7.15 m/s, 161° | - | - |
| 1778027801 | 11.67° C | 100% | 0 hPa | - | 7.15 m/s, 190° | - | - |
| 1778027551 | 11.67° C | 100% | 0 hPa | - | 7.6 m/s, 178° | - | - |
| 1778027311 | 11.67° C | 100% | 0 hPa | - | 6.71 m/s, 167° | - | - |
| 1778027069 | 11.67° C | 100% | 0 hPa | - | 8.49 m/s, 190° | - | - |
| 1778026829 | 11.67° C | 100% | 0 hPa | - | 7.15 m/s, 192° | - | - |
| 1778026589 | 11.67° C | 100% | 0 hPa | - | 7.6 m/s, 201° | - | - |
| 1778026349 | 12.22° C | 100% | 0 hPa | - | 6.71 m/s, 185° | - | - |
| 1778026109 | 12.22° C | 100% | 0 hPa | - | 6.26 m/s, 180° | - | - |
| 1778025867 | 12.22° C | 100% | 0 hPa | - | 7.6 m/s, 187° | - | - |
| 1778025628 | 12.22° C | 100% | 0 hPa | - | 6.71 m/s, 187° | - | - |
| 1778025388 | 12.22° C | 100% | 0 hPa | - | 6.71 m/s, 183° | - | - |
| 1778025148 | 12.22° C | 100% | 0 hPa | - | 6.26 m/s, 189° | - | - |
| 1778024908 | 12.22° C | 100% | 0 hPa | - | 4.92 m/s, 184° | - | - |
| 1778024666 | 12.22° C | 100% | 0 hPa | - | 4.47 m/s, 180° | - | - |
| 1778024424 | 11.67° C | 100% | 0 hPa | - | 6.26 m/s, 204° | - | - |
| 1778024184 | 11.67° C | 100% | 0 hPa | - | 4.47 m/s, 198° | - | - |
| 1778023944 | 11.67° C | 100% | 0 hPa | - | 4.02 m/s, 199° | - | - |
| 1778023704 | 11.67° C | 100% | 0 hPa | - | 5.36 m/s, 184° | - | - |
| 1778023461 | 11.67° C | 100% | 0 hPa | - | 5.36 m/s, 195° | - | - |
| 1778023221 | 11.67° C | 100% | 0 hPa | - | 5.36 m/s, 188° | - | - |
| 1778022981 | 11.67° C | 100% | 0 hPa | - | 4.92 m/s, 196° | - | - |
| 1778022741 | 11.67° C | 100% | 0 hPa | - | 4.47 m/s, 198° | - | - |
| 1778022503 | 11.67° C | 100% | 0 hPa | - | 4.47 m/s, 186° | - | - |
| 1778022262 | 11.67° C | 100% | 0 hPa | - | 4.02 m/s, 200° | - | - |
* Rain since midnight (hover to see other rain measurements)
** Current wind speed in m/s (hover to see current wind gust speed)